• en France
  • Liste des pays
  • À 7 jours
  • Température de l'eau
  • Carte satellitaire
  • Carte météo
  • Widgets météo
  • user-avatar
    Se connecter

    Météo par heure à Tunja

    Ce jour, 14 Décembre, Jeudi

    Heure Température Précipitation Vent Pression Humidité
    00:00 +9°C° 0,1 mm 0 m/s 549 mmHg 98%
    01:00 +9°C° 0 mm 0 m/s 548 mmHg 98%
    02:00 +9°C° 0,1 mm 0 m/s 548 mmHg 97%
    03:00 +10°C° 0,1 mm 1 m/s 548 mmHg 97%
    04:00 +10°C° 0,1 mm 1 m/s 548 mmHg 97%
    05:00 +10°C° 0 mm 1 m/s 549 mmHg 95%
    06:00 +11°C° 0 mm 1 m/s 549 mmHg 94%
    07:00 +11°C° 0 mm 1 m/s 550 mmHg 93%
    08:00 +13°C° 0 mm 1 m/s 551 mmHg 83%
    09:00 +15°C° 0 mm 2 m/s 552 mmHg 72%
    10:00 +17°C° 0 mm 2 m/s 553 mmHg 62%
    11:00 +18°C° 0 mm 2 m/s 553 mmHg 55%
    12:00 +19°C° 0 mm 2 m/s 553 mmHg 49%
    13:00 +20°C° 0 mm 3 m/s 553 mmHg 42%
    14:00 +19°C° 0 mm 3 m/s 552 mmHg 47%
    15:00 +18°C° 0 mm 2 m/s 551 mmHg 52%
    16:00 +17°C° 0 mm 2 m/s 550 mmHg 56%
    17:00 +15°C° 0 mm 2 m/s 549 mmHg 68%
    18:00 +12°C° 0 mm 1 m/s 548 mmHg 79%
    19:00 +9°C° 0 mm 1 m/s 547 mmHg 91%
    20:00 +9°C° 0 mm 1 m/s 547 mmHg 90%
    21:00 +9°C° 0 mm 1 m/s 548 mmHg 89%
    22:00 +8°C° 0 mm 1 m/s 548 mmHg 89%
    23:00 +8°C° 0 mm 1 m/s 548 mmHg 87%

    Demain, 15 Décembre, Vendredi

    Heure Température Précipitation Vent Pression Humidité
    00:00 +8°C° 0 mm 1 m/s 547 mmHg 86%
    01:00 +8°C° 0 mm 1 m/s 547 mmHg 85%
    02:00 +7°C° 0 mm 1 m/s 547 mmHg 85%
    03:00 +7°C° 0 mm 1 m/s 547 mmHg 84%
    04:00 +7°C° 0 mm 1 m/s 547 mmHg 84%
    05:00 +8°C° 0 mm 1 m/s 547 mmHg 83%
    06:00 +9°C° 0 mm 1 m/s 548 mmHg 82%
    07:00 +10°C° 0 mm 1 m/s 549 mmHg 81%
    08:00 +12°C° 0 mm 2 m/s 550 mmHg 72%
    09:00 +15°C° 0 mm 2 m/s 552 mmHg 64%
    10:00 +18°C° 0 mm 2 m/s 553 mmHg 56%
    11:00 +18°C° 0,1 mm 2 m/s 553 mmHg 57%
    12:00 +18°C° 0,1 mm 2 m/s 552 mmHg 58%
    13:00 +18°C° 0,1 mm 2 m/s 552 mmHg 59%
    14:00 +18°C° 0,2 mm 2 m/s 551 mmHg 64%
    15:00 +17°C° 0,2 mm 2 m/s 550 mmHg 68%
    16:00 +16°C° 0,2 mm 1 m/s 549 mmHg 73%
    17:00 +14°C° 0,1 mm 1 m/s 549 mmHg 80%
    18:00 +13°C° 0,1 mm 1 m/s 548 mmHg 87%
    19:00 +11°C° 0,1 mm 1 m/s 548 mmHg 95%
    20:00 +11°C° 0 mm 1 m/s 548 mmHg 94%
    21:00 +10°C° 0 mm 1 m/s 549 mmHg 94%
    22:00 +10°C° 0 mm 1 m/s 549 mmHg 94%
    23:00 +10°C° 0 mm 1 m/s 549 mmHg 94%

    Après-demain, 16 Décembre, Samedi

    Heure Température Précipitation Vent Pression Humidité
    00:00 +10°C° 0 mm 1 m/s 548 mmHg 93%
    01:00 +9°C° 0 mm 1 m/s 548 mmHg 93%
    02:00 +9°C° 0 mm 1 m/s 548 mmHg 93%
    03:00 +9°C° 0 mm 1 m/s 547 mmHg 92%
    04:00 +9°C° 0 mm 1 m/s 547 mmHg 92%
    05:00 +9°C° 0 mm 1 m/s 548 mmHg 90%
    06:00 +10°C° 0 mm 1 m/s 548 mmHg 88%
    07:00 +11°C° 0 mm 1 m/s 549 mmHg 86%
    08:00 +13°C° 0 mm 1 m/s 550 mmHg 77%
    09:00 +15°C° 0 mm 1 m/s 552 mmHg 68%
    10:00 +19°C° 0 mm 1 m/s 553 mmHg 60%
    11:00 +19°C° 0,1 mm 1 m/s 553 mmHg 61%
    12:00 +19°C° 0,1 mm 1 m/s 552 mmHg 62%
    13:00 +19°C° 0,1 mm 1 m/s 552 mmHg 63%
    14:00 +18°C° 0,1 mm 1 m/s 551 mmHg 67%
    15:00 +18°C° 0,1 mm 1 m/s 550 mmHg 72%
    16:00 +16°C° 0,1 mm 1 m/s 549 mmHg 76%
    17:00 +15°C° 0,2 mm 1 m/s 549 mmHg 83%
    18:00 +12°C° 0,2 mm 0 m/s 548 mmHg 90%
    19:00 +11°C° 0,2 mm 0 m/s 548 mmHg 96%
    20:00 +10°C° 0,1 mm 0 m/s 548 mmHg 96%
    21:00 +10°C° 0,1 mm 0 m/s 548 mmHg 96%
    22:00 +10°C° 0,1 mm 0 m/s 549 mmHg 96%
    23:00 +9°C° 0 mm 0 m/s 548 mmHg 96%

    17 Décembre, Dimanche

    Heure Température Précipitation Vent Pression Humidité
    00:00 +9°C° 0 mm 0 m/s 548 mmHg 96%
    01:00 +9°C° 0 mm 0 m/s 548 mmHg 96%
    02:00 +9°C° 0 mm 0 m/s 547 mmHg 95%
    03:00 +9°C° 0 mm 1 m/s 547 mmHg 95%
    04:00 +9°C° 0 mm 1 m/s 547 mmHg 95%
    05:00 +9°C° 0 mm 1 m/s 547 mmHg 94%
    06:00 +10°C° 0 mm 1 m/s 548 mmHg 92%
    07:00 +10°C° 0 mm 1 m/s 549 mmHg 91%
    08:00 +13°C° 0 mm 1 m/s 550 mmHg 79%
    09:00 +15°C° 0 mm 1 m/s 552 mmHg 66%
    10:00 +18°C° 0 mm 2 m/s 553 mmHg 54%
    11:00 +19°C° 0 mm 2 m/s 553 mmHg 50%
    12:00 +19°C° 0 mm 2 m/s 553 mmHg 47%
    13:00 +20°C° 0 mm 3 m/s 553 mmHg 43%
    14:00 +19°C° 0 mm 2 m/s 552 mmHg 46%
    15:00 +18°C° 0 mm 2 m/s 551 mmHg 50%
    16:00 +17°C° 0 mm 2 m/s 550 mmHg 53%
    17:00 +15°C° 0 mm 2 m/s 549 mmHg 64%
    18:00 +12°C° 0 mm 2 m/s 548 mmHg 74%
    19:00 +9°C° 0 mm 1 m/s 547 mmHg 85%
    20:00 +9°C° 0 mm 1 m/s 547 mmHg 83%
    21:00 +8°C° 0 mm 1 m/s 547 mmHg 80%
    22:00 +7°C° 0 mm 1 m/s 547 mmHg 78%
    23:00 +7°C° 0 mm 1 m/s 546 mmHg 75%

    18 Décembre, Lundi

    Heure Température Précipitation Vent Pression Humidité
    00:00 +7°C° 0 mm 1 m/s 546 mmHg 72%
    01:00 +6°C° 0 mm 1 m/s 546 mmHg 69%
    02:00 +6°C° 0 mm 1 m/s 545 mmHg 68%
    03:00 +6°C° 0 mm 1 m/s 545 mmHg 66%
    04:00 +6°C° 0 mm 1 m/s 545 mmHg 64%
    05:00 +6°C° 0 mm 2 m/s 546 mmHg 64%
    06:00 +6°C° 0 mm 2 m/s 547 mmHg 63%
    07:00 +7°C° 0 mm 2 m/s 548 mmHg 62%
    08:00 +10°C° 0 mm 2 m/s 550 mmHg 56%
    09:00 +14°C° 0 mm 2 m/s 551 mmHg 49%
    10:00 +18°C° 0 mm 2 m/s 553 mmHg 42%
    11:00 +18°C° 0 mm 2 m/s 553 mmHg 41%
    12:00 +19°C° 0 mm 3 m/s 553 mmHg 40%
    13:00 +20°C° 0 mm 3 m/s 552 mmHg 39%
    14:00 +19°C° 0 mm 3 m/s 552 mmHg 43%
    15:00 +18°C° 0 mm 3 m/s 551 mmHg 47%
    16:00 +18°C° 0 mm 3 m/s 550 mmHg 51%
    17:00 +15°C° 0 mm 2 m/s 549 mmHg 63%
    18:00 +12°C° 0 mm 2 m/s 548 mmHg 74%
    19:00 +9°C° 0 mm 1 m/s 547 mmHg 86%
    20:00 +9°C° 0 mm 1 m/s 547 mmHg 86%
    21:00 +8°C° 0 mm 1 m/s 547 mmHg 85%
    22:00 +8°C° 0 mm 1 m/s 547 mmHg 85%
    23:00 +7°C° 0 mm 1 m/s 547 mmHg 83%

    19 Décembre, Mardi

    Heure Température Précipitation Vent Pression Humidité
    00:00 +7°C° 0 mm 1 m/s 547 mmHg 82%
    01:00 +6°C° 0 mm 1 m/s 546 mmHg 81%
    02:00 +6°C° 0 mm 1 m/s 546 mmHg 78%
    03:00 +6°C° 0 mm 1 m/s 546 mmHg 75%
    04:00 +6°C° 0 mm 1 m/s 545 mmHg 73%
    05:00 +6°C° 0 mm 1 m/s 546 mmHg 69%
    06:00 +7°C° 0 mm 1 m/s 547 mmHg 65%
    07:00 +8°C° 0 mm 1 m/s 548 mmHg 62%
    08:00 +11°C° 0 mm 1 m/s 550 mmHg 54%
    09:00 +15°C° 0 mm 2 m/s 552 mmHg 46%
    10:00 +18°C° 0 mm 2 m/s 553 mmHg 38%
    11:00 +19°C° 0 mm 2 m/s 553 mmHg 38%
    12:00 +20°C° 0 mm 2 m/s 553 mmHg 38%
    13:00 +21°C° 0 mm 2 m/s 553 mmHg 38%
    14:00 +20°C° 0 mm 2 m/s 552 mmHg 43%
    15:00 +19°C° 0 mm 2 m/s 551 mmHg 48%
    16:00 +18°C° 0 mm 2 m/s 550 mmHg 53%
    17:00 +15°C° 0 mm 2 m/s 549 mmHg 66%
    18:00 +13°C° 0 mm 1 m/s 549 mmHg 78%
    19:00 +10°C° 0 mm 1 m/s 548 mmHg 90%
    20:00 +10°C° 0 mm 1 m/s 548 mmHg 90%
    21:00 +9°C° 0 mm 1 m/s 548 mmHg 91%
    22:00 +9°C° 0 mm 1 m/s 548 mmHg 91%
    23:00 +9°C° 0 mm 1 m/s 548 mmHg 91%
    Voir plus